Time,TemperatureF,DewpointF,PressureIn,WindDirection,WindDirectionDegrees,WindSpeedMPH,WindSpeedGustMPH,Humidity,HourlyPrecipIn,Conditions,Clouds,dailyrainin,SoftwareType,DateUTC
2013-05-23 00:11:00,60.3,60.0,29.94,SSW,209,7.0,11.0,99,0.00,,,0.00,weatherlink.com 1.10,2013-05-23 04:11:00,
2013-05-23 01:26:00,60.7,61.0,29.92,SSW,213,7.0,18.0,99,0.00,,,0.00,weatherlink.com 1.10,2013-05-23 05:26:00,
2013-05-23 01:41:00,60.6,60.0,29.92,SW,215,8.0,18.0,99,0.00,,,0.00,weatherlink.com 1.10,2013-05-23 05:41:00,
2013-05-23 01:56:00,60.4,60.0,29.92,West,269,10.0,16.0,99,0.00,,,0.00,weatherlink.com 1.10,2013-05-23 05:56:00,
2013-05-23 02:11:00,60.4,60.0,29.92,SSW,207,7.0,14.0,99,0.00,,,0.00,weatherlink.com 1.10,2013-05-23 06:11:00,
2013-05-23 02:26:00,60.4,60.0,29.92,SW,236,13.0,17.0,99,0.00,,,0.00,weatherlink.com 1.10,2013-05-23 06:26:00,
2013-05-23 02:41:00,60.4,60.0,29.91,WSW,242,10.0,15.0,99,0.00,,,0.00,weatherlink.com 1.10,2013-05-23 06:41:00,
2013-05-23 02:56:00,60.2,60.0,29.91,SSW,209,6.0,16.0,99,0.00,,,0.00,weatherlink.com 1.10,2013-05-23 06:56:00,
2013-05-23 03:11:00,60.2,60.0,29.91,SSW,193,7.0,15.0,99,0.00,,,0.00,weatherlink.com 1.10,2013-05-23 07:11:00,
2013-05-23 03:26:00,60.3,60.0,29.91,SW,227,10.0,13.0,99,0.00,,,0.00,weatherlink.com 1.10,2013-05-23 07:26:00,
2013-05-23 03:41:00,60.4,60.0,29.91,SSE,154,9.0,16.0,99,0.00,,,0.00,weatherlink.com 1.10,2013-05-23 07:41:00,
2013-05-23 03:56:00,60.3,60.0,29.90,SSW,197,7.0,15.0,99,0.00,,,0.00,weatherlink.com 1.10,2013-05-23 07:56:00,
2013-05-23 04:11:00,60.4,60.0,29.91,South,186,13.0,20.0,99,0.00,,,0.00,weatherlink.com 1.10,2013-05-23 08:11:00,
2013-05-23 04:26:00,60.3,60.0,29.91,WSW,246,8.0,15.0,99,0.00,,,0.00,weatherlink.com 1.10,2013-05-23 08:26:00,
2013-05-23 04:41:00,60.0,60.0,29.92,SW,214,7.0,16.0,99,0.00,,,0.00,weatherlink.com 1.10,2013-05-23 08:41:00,
2013-05-23 04:56:00,59.7,60.0,29.92,SW,215,6.0,14.0,99,0.00,,,0.00,weatherlink.com 1.10,2013-05-23 08:56:00,
2013-05-23 05:11:00,59.7,60.0,29.93,West,260,10.0,15.0,99,0.00,,,0.00,weatherlink.com 1.10,2013-05-23 09:11:00,
2013-05-23 05:26:00,59.6,59.0,29.92,SSW,203,8.0,12.0,99,0.00,,,0.00,weatherlink.com 1.10,2013-05-23 09:26:00,
2013-05-23 05:41:00,59.6,59.0,29.93,WSW,243,10.0,13.0,99,0.00,,,0.00,weatherlink.com 1.10,2013-05-23 09:41:00,
2013-05-23 05:56:00,59.6,59.0,29.93,SW,229,8.0,12.0,99,0.00,,,0.00,weatherlink.com 1.10,2013-05-23 09:56:00,
2013-05-23 06:11:00,59.5,59.0,29.93,SSW,211,7.0,14.0,99,0.00,,,0.00,weatherlink.com 1.10,2013-05-23 10:11:00,
2013-05-23 06:26:00,59.6,59.0,29.94,SW,232,6.0,14.0,99,0.00,,,0.00,weatherlink.com 1.10,2013-05-23 10:26:00,
2013-05-23 06:41:00,59.7,60.0,29.94,SW,232,4.0,15.0,99,0.00,,,0.00,weatherlink.com 1.10,2013-05-23 10:41:00,
2013-05-23 06:56:00,59.8,60.0,29.94,SW,217,8.0,13.0,99,0.00,,,0.00,weatherlink.com 1.10,2013-05-23 10:56:00,
2013-05-23 07:11:00,59.8,60.0,29.94,SSW,195,7.0,13.0,99,0.00,,,0.00,weatherlink.com 1.10,2013-05-23 11:11:00,
2013-05-23 07:26:00,60.0,60.0,29.94,SSW,209,5.0,13.0,100,0.00,,,0.00,weatherlink.com 1.10,2013-05-23 11:26:00,
2013-05-23 07:41:00,59.9,60.0,29.94,SW,227,9.0,14.0,100,0.00,,,0.00,weatherlink.com 1.10,2013-05-23 11:41:00,
2013-05-23 07:56:00,60.1,60.0,29.94,WNW,282,9.0,13.0,100,0.00,,,0.00,weatherlink.com 1.10,2013-05-23 11:56:00,
2013-05-23 08:11:00,60.3,60.0,29.94,SSW,205,6.0,14.0,99,0.00,,,0.00,weatherlink.com 1.10,2013-05-23 12:11:00,
2013-05-23 08:26:00,60.3,60.0,29.95,SSW,205,9.0,14.0,99,0.00,,,0.00,weatherlink.com 1.10,2013-05-23 12:26:00,
2013-05-23 08:42:00,60.4,60.0,29.95,WSW,257,8.0,16.0,99,0.00,,,0.00,weatherlink.com 1.10,2013-05-23 12:42:00,
2013-05-23 08:57:00,60.6,61.0,29.94,WSW,240,10.0,17.0,100,0.00,,,0.00,weatherlink.com 1.10,2013-05-23 12:57:00,
2013-05-23 09:12:00,60.5,60.0,29.94,SSW,211,8.0,13.0,99,0.00,,,0.00,weatherlink.com 1.10,2013-05-23 13:12:00,
2013-05-23 09:27:00,60.7,61.0,29.94,SSW,196,7.0,14.0,100,0.00,,,0.00,weatherlink.com 1.10,2013-05-23 13:27:00,
2013-05-23 09:42:00,60.8,61.0,29.94,WSW,241,6.0,15.0,100,0.00,,,0.00,weatherlink.com 1.10,2013-05-23 13:42:00,
2013-05-23 09:57:00,60.8,61.0,29.94,SW,221,15.0,15.0,100,0.00,,,0.00,weatherlink.com 1.10,2013-05-23 13:57:00,
2013-05-23 10:12:00,60.7,61.0,29.95,SW,221,8.0,18.0,100,0.00,,,0.00,weatherlink.com 1.10,2013-05-23 14:12:00,
2013-05-23 10:27:00,60.5,60.0,29.95,WSW,248,10.0,15.0,99,0.00,,,0.00,weatherlink.com 1.10,2013-05-23 14:27:00,
2013-05-23 10:42:00,60.4,60.0,29.95,SSW,201,6.0,18.0,99,0.00,,,0.00,weatherlink.com 1.10,2013-05-23 14:42:00,
2013-05-23 10:57:00,60.7,61.0,29.95,WSW,250,14.0,16.0,100,0.00,,,0.00,weatherlink.com 1.10,2013-05-23 14:57:00,
2013-05-23 11:12:00,60.7,61.0,29.95,SSW,212,9.0,18.0,100,0.00,,,0.00,weatherlink.com 1.10,2013-05-23 15:12:00,
2013-05-23 11:27:00,60.5,60.0,29.95,WSW,257,14.0,17.0,99,0.00,,,0.00,weatherlink.com 1.10,2013-05-23 15:27:00,
2013-05-23 11:42:00,60.7,61.0,29.95,SSW,195,11.0,17.0,100,0.00,,,0.00,weatherlink.com 1.10,2013-05-23 15:42:00,
2013-05-23 11:57:00,60.7,61.0,29.95,SSW,207,6.0,19.0,100,0.00,,,0.00,weatherlink.com 1.10,2013-05-23 15:57:00,
2013-05-23 12:12:00,60.6,60.0,29.95,SW,219,12.0,17.0,99,0.00,,,0.00,weatherlink.com 1.10,2013-05-23 16:12:00,
2013-05-23 12:27:00,60.8,61.0,29.95,SW,217,10.0,15.0,99,0.00,,,0.00,weatherlink.com 1.10,2013-05-23 16:27:00,
2013-05-23 12:42:00,60.9,61.0,29.95,SSW,196,8.0,19.0,99,0.00,,,0.00,weatherlink.com 1.10,2013-05-23 16:42:00,
2013-05-23 12:57:00,61.0,61.0,29.95,SSW,209,7.0,14.0,99,0.00,,,0.00,weatherlink.com 1.10,2013-05-23 16:57:00,
2013-05-23 13:12:00,61.3,61.0,29.95,WSW,245,8.0,18.0,99,0.00,,,0.00,weatherlink.com 1.10,2013-05-23 17:12:00,
2013-05-23 13:27:00,61.6,61.0,29.95,SSW,212,7.0,14.0,98,0.00,,,0.00,weatherlink.com 1.10,2013-05-23 17:27:00,
2013-05-23 13:42:00,62.0,62.0,29.94,WSW,238,6.0,19.0,98,0.00,,,0.00,weatherlink.com 1.10,2013-05-23 17:42:00,
2013-05-23 13:57:00,61.9,61.0,29.94,SW,219,11.0,18.0,98,0.00,,,0.00,weatherlink.com 1.10,2013-05-23 17:57:00,
2013-05-23 14:12:00,62.0,62.0,29.94,SSW,205,7.0,13.0,98,0.00,,,0.00,weatherlink.com 1.10,2013-05-23 18:12:00,
2013-05-23 14:27:00,61.9,61.0,29.94,SW,236,5.0,12.0,98,0.00,,,0.00,weatherlink.com 1.10,2013-05-23 18:27:00,
2013-05-23 14:42:00,61.8,61.0,29.94,SW,215,7.0,15.0,97,0.00,,,0.00,weatherlink.com 1.10,2013-05-23 18:42:00,
2013-05-23 14:57:00,61.8,61.0,29.94,West,266,14.0,16.0,98,0.00,,,0.00,weatherlink.com 1.10,2013-05-23 18:57:00,
2013-05-23 15:12:00,62.4,62.0,29.94,WSW,252,7.0,19.0,98,0.00,,,0.00,weatherlink.com 1.10,2013-05-23 19:12:00,
2013-05-23 15:27:00,62.8,62.0,29.94,West,271,13.0,18.0,97,0.00,,,0.00,weatherlink.com 1.10,2013-05-23 19:27:00,
2013-05-23 15:42:00,63.0,62.0,29.93,WSW,243,5.0,16.0,97,0.00,,,0.00,weatherlink.com 1.10,2013-05-23 19:42:00,
2013-05-23 15:57:00,64.5,64.0,29.92,SSW,211,6.0,19.0,97,0.00,,,0.00,weatherlink.com 1.10,2013-05-23 19:57:00,
2013-05-23 16:12:00,66.1,65.0,29.92,SW,217,7.0,19.0,95,0.00,,,0.00,weatherlink.com 1.10,2013-05-23 20:12:00,
2013-05-23 16:27:00,66.4,65.0,29.92,West,263,11.0,19.0,94,0.00,,,0.00,weatherlink.com 1.10,2013-05-23 20:27:00,
2013-05-23 16:42:00,67.2,65.0,29.91,SSW,203,8.0,21.0,93,0.00,,,0.00,weatherlink.com 1.10,2013-05-23 20:42:00,
2013-05-23 16:57:00,67.4,65.0,29.91,WSW,247,8.0,20.0,93,0.00,,,0.00,weatherlink.com 1.10,2013-05-23 20:57:00,
2013-05-23 17:12:00,67.4,65.0,29.91,SSW,210,11.0,22.0,92,0.00,,,0.00,weatherlink.com 1.10,2013-05-23 21:12:00,
2013-05-23 17:27:00,67.4,65.0,29.91,SW,234,10.0,20.0,92,0.00,,,0.00,weatherlink.com 1.10,2013-05-23 21:27:00,
2013-05-23 17:42:00,67.1,65.0,29.91,SSW,200,10.0,25.0,92,0.00,,,0.00,weatherlink.com 1.10,2013-05-23 21:42:00,
2013-05-23 17:57:00,67.3,65.0,29.91,SW,233,14.0,23.0,92,0.00,,,0.00,weatherlink.com 1.10,2013-05-23 21:57:00,
2013-05-23 18:12:00,67.1,65.0,29.91,SSW,194,8.0,22.0,92,0.00,,,0.00,weatherlink.com 1.10,2013-05-23 22:12:00,
2013-05-23 18:27:00,66.6,65.0,29.92,SSW,196,7.0,19.0,93,0.00,,,0.00,weatherlink.com 1.10,2013-05-23 22:27:00,
2013-05-23 18:42:00,66.1,64.0,29.92,SW,224,5.0,17.0,93,0.00,,,0.00,weatherlink.com 1.10,2013-05-23 22:42:00,
2013-05-23 18:58:00,65.9,64.0,29.92,WNW,298,10.0,16.0,94,0.00,,,0.00,weatherlink.com 1.10,2013-05-23 22:58:00,
2013-05-23 19:12:00,65.9,64.0,29.92,SW,219,14.0,16.0,94,0.00,,,0.00,weatherlink.com 1.10,2013-05-23 23:12:00,
2013-05-23 19:27:00,65.5,64.0,29.92,SSW,213,10.0,17.0,94,0.00,,,0.00,weatherlink.com 1.10,2013-05-23 23:27:00,
2013-05-23 19:43:00,65.3,64.0,29.92,SW,231,18.0,20.0,94,0.00,,,0.00,weatherlink.com 1.10,2013-05-23 23:43:00,
2013-05-23 19:58:00,65.1,64.0,29.92,SW,216,9.0,18.0,95,0.00,,,0.00,weatherlink.com 1.10,2013-05-23 23:58:00,
2013-05-23 20:13:00,65.1,64.0,29.92,WSW,250,12.0,17.0,95,0.00,,,0.00,weatherlink.com 1.10,2013-05-24 00:13:00,
2013-05-23 20:28:00,65.0,64.0,29.91,SW,219,12.0,17.0,95,0.00,,,0.00,weatherlink.com 1.10,2013-05-24 00:28:00,
2013-05-23 20:43:00,65.0,64.0,29.92,SW,223,9.0,16.0,95,0.00,,,0.00,weatherlink.com 1.10,2013-05-24 00:43:00,
2013-05-23 20:58:00,65.1,64.0,29.91,SW,223,10.0,21.0,95,0.00,,,0.00,weatherlink.com 1.10,2013-05-24 00:58:00,
2013-05-23 21:13:00,65.4,64.0,29.91,SW,234,15.0,18.0,95,0.00,,,0.00,weatherlink.com 1.10,2013-05-24 01:13:00,
2013-05-23 21:28:00,65.2,64.0,29.91,SSW,209,7.0,15.0,96,0.00,,,0.00,weatherlink.com 1.10,2013-05-24 01:28:00,
2013-05-23 21:43:00,65.4,64.0,29.90,SW,216,10.0,17.0,96,0.00,,,0.00,weatherlink.com 1.10,2013-05-24 01:43:00,
2013-05-23 21:58:00,65.4,64.0,29.90,SW,234,19.0,19.0,96,0.00,,,0.00,weatherlink.com 1.10,2013-05-24 01:58:00,
2013-05-23 22:13:00,65.2,64.0,29.89,SW,219,8.0,19.0,96,0.00,,,0.00,weatherlink.com 1.10,2013-05-24 02:13:00,
2013-05-23 22:28:00,65.4,65.0,29.89,West,263,6.0,13.0,97,0.00,,,0.00,weatherlink.com 1.10,2013-05-24 02:28:00,
2013-05-23 22:43:00,66.0,65.0,29.88,SW,225,12.0,17.0,97,0.00,,,0.00,weatherlink.com 1.10,2013-05-24 02:43:00,
2013-05-23 22:58:00,66.3,66.0,29.88,SSW,213,8.0,17.0,97,0.00,,,0.00,weatherlink.com 1.10,2013-05-24 02:58:00,
2013-05-23 23:13:00,66.2,65.0,29.87,SSW,213,8.0,18.0,97,0.00,,,0.00,weatherlink.com 1.10,2013-05-24 03:13:00,
2013-05-23 23:28:00,65.8,65.0,29.87,SW,231,13.0,15.0,97,0.01,,,0.01,weatherlink.com 1.10,2013-05-24 03:28:00,
2013-05-23 23:43:00,65.6,65.0,29.86,SSW,205,8.0,15.0,97,0.04,,,0.04,weatherlink.com 1.10,2013-05-24 03:43:00,
2013-05-23 23:58:00,64.8,64.0,29.85,SSW,212,6.0,11.0,98,0.09,,,0.09,weatherlink.com 1.10,2013-05-24 03:58:00,